[[{"header":{"parameterUnit":"m.s-1","parameterCategory":1,"la1":30.2991,"la2":30.254,"lo1":-89.0895,"lo2":-89.0444,"dy":0.0017,"dx":0.0017,"nx":28,"ny":28,"refTime":"2026-03-03T03:00:00:Z","depth":0,"parameterNumber":2,"parameterNumberName":"U-component_of_WINDS"},"data":[0,0,0,0,0,0,0,0,0,0,0,0,0,0,0,0,0,0,0,0,0,0,0,0,0,0,0,0,0,0,0,0,0,0,0,0,0,0,0,0,0,0,0,0,0,0,0,0,0,0,0,0,0,0,0,0,0,0,-3.4781,-3.4782,0,-3.4883,-3.4885,-3.4886,-3.4884,-3.4882,-3.4881,-3.488,-3.4984,-3.4988,-3.4992,0,0,0,0,0,0,0,0,0,0,0,0,0,-3.4585,-3.4588,-3.4781,-3.4782,-3.4783,-3.4883,-3.4885,-3.4886,-3.4884,-3.4882,-3.4881,-3.4879,-3.4983,-3.4987,-3.4992,0,0,0,0,0,0,0,0,0,0,0,0,0,-3.4677,-3.459,-3.4781,-3.4794,-3.4797,-3.4883,-3.4885,-3.4886,-3.4884,-3.4882,-3.488,-3.4878,-3.4981,-3.4987,-3.4993,-3.5072,0,0,-3.5012,-3.5014,0,0,0,0,0,0,0,0,-3.4672,-3.4684,-3.4791,-3.4794,-3.4796,-3.4869,-3.4854,-3.4949,-3.4885,-3.4851,-3.488,-3.4877,-3.4947,-3.4956,-3.498,-3.5077,-3.5081,-3.5012,-3.5016,-3.5018,-3.502,0,0,0,0,0,0,0,-3.4665,-3.468,-3.4821,-3.4793,-3.4796,-3.4796,-3.4807,-3.4872,-3.4909,-3.4854,-3.4854,-3.4866,-3.4948,-3.4974,-3.4982,-3.5083,-3.5012,-3.5017,-3.5021,-3.5023,-3.5253,-3.5255,0,0,0,0,0,0,-3.4656,-3.4674,-3.4818,-3.4824,-3.4728,-3.4801,-3.4813,-3.4848,-3.4909,-3.4916,-3.4868,-3.4866,-3.4964,-3.4975,-3.4986,-3.5083,-3.5018,-3.5024,-3.5028,-3.525,-3.5253,-3.5256,0,0,0,0,0,0,-3.4652,-3.4669,-3.4814,-3.475,-3.4768,-3.4807,-3.4845,-3.4851,-3.4876,-3.4919,-3.4926,-3.4887,-3.4963,-3.4977,-3.5051,-3.5087,-3.5027,-3.5032,-3.5247,-3.5251,-3.5255,-3.5278,0,0,0,0,0,0,-3.4646,-3.4667,-3.4697,-3.475,-3.4772,-3.4877,-3.4848,-3.4854,-3.4887,-3.4885,-3.4939,-3.4946,-3.4963,-3.5042,-3.5057,-3.5094,-3.5037,-3.5244,-3.5249,-3.5253,-3.5274,-3.5282,-3.5289,0,0,0,0,0,-3.4639,-3.4699,-3.4698,-3.4716,-3.4809,-3.4879,-3.4891,-3.4909,-3.489,-3.492,-3.4949,-3.4944,-3.5081,-3.505,-3.5067,-3.5106,-3.5242,-3.5248,-3.5253,-3.5271,-3.528,-3.5289,0,0,0,0,0,0,-3.4647,-3.4706,-3.4706,-3.4785,-3.4827,-3.4878,-3.4917,-3.4919,-3.4967,-3.4963,-3.4984,-3.4996,-3.507,-3.5096,-3.506,-3.5187,-3.5159,-3.5168,-3.5167,-3.5176,-3.5183,-3.5175,-3.5042,0,0,0,0,0,-3.4659,-3.471,-3.4759,-3.4823,-3.4845,-3.4878,-3.4909,-3.492,-3.4964,-3.4982,-3.5015,-3.5059,-3.5112,-3.5146,-3.5197,-3.5279,-3.5291,-3.5315,-3.5322,-3.5328,-3.5335,-3.5382,-3.5393,-3.5274,-3.5274,-3.5274,0,0,-3.4682,-3.472,-3.4751,-3.4826,-3.486,-3.4914,-3.4892,-3.4949,-3.4989,-3.499,-3.5062,-3.5089,-3.5139,-3.5218,-3.5254,-3.5241,-3.5371,-3.5335,-3.5339,-3.5343,-3.5389,-3.54,-3.541,-3.5278,-3.5277,-3.5276,0,0,-3.4751,-3.4785,-3.4843,-3.4879,-3.4931,-3.4953,-3.4968,-3.502,-3.5038,-3.5111,-3.5113,-3.5162,-3.5252,-3.5288,-3.5318,-3.5406,-3.5404,-3.5422,-3.5459,-3.5505,-3.5514,-3.5523,-3.5554,-3.5565,-3.543,-3.543,-3.543,0,-3.4772,-3.4852,-3.4873,-3.4931,-3.4964,-3.497,-3.5029,-3.5063,-3.5129,-3.5152,-3.5138,-3.5253,-3.5287,-3.5375,-3.5397,-3.5421,-3.5439,-3.5415,-3.5511,-3.552,-3.5528,-3.5558,-3.557,-3.5432,-3.5431,-3.5431,-3.5431,0,-3.4877,-3.4933,-3.4974,-3.5039,-3.5078,-3.5136,-3.5166,-3.5203,-3.5212,-3.5236,-3.5312,-3.5353,-3.5414,-3.5436,-3.5444,-3.5526,-3.5517,-3.5507,-3.5479,-3.5541,-3.557,-3.5581,-3.5434,-3.5433,-3.5433,-3.5432,0,0,-3.495,-3.5029,-3.5043,-3.5074,-3.5134,-3.5178,-3.5238,-3.5298,-3.5329,-3.5377,-3.5427,-3.5506,-3.5498,-3.5532,-3.5546,-3.5586,-3.5654,-3.5571,-3.5573,-3.5584,-3.5747,-3.5753,-3.5766,-3.5654,-3.5656,-3.5658,-3.5743,0,-3.5025,-3.5131,-3.5153,-3.5245,-3.5298,-3.5306,-3.5358,-3.5402,-3.5427,-3.5476,-3.5504,-3.5559,-3.5544,-3.5565,-3.5606,-3.5636,-3.5686,-3.5631,-3.5702,-3.5704,-3.5687,-3.5781,-3.5787,-3.5865,-3.5754,-3.5756,-3.5758,0,-3.5125,-3.5176,-3.5273,-3.5329,-3.5352,-3.5399,-3.5457,-3.5504,-3.5554,-3.557,-3.561,-3.562,-3.5684,-3.5656,-3.5744,-3.5706,-3.5737,-3.5758,-3.5761,-3.5767,-3.5733,-3.5789,-3.589,-3.5902,-3.5775,-3.5774,-3.5773,0,-3.5168,-3.5261,-3.5332,-3.5358,-3.5425,-3.5458,-3.5487,-3.5535,-3.5571,-3.5623,-3.5646,-3.5704,-3.5736,-3.5781,-3.5807,-3.5784,-3.5895,-3.5868,-3.591,-3.5909,-3.593,-3.5928,-3.6037,-3.5953,-3.5953,-3.5952,-3.5952,0,-3.5248,-3.5307,-3.5352,-3.5395,-3.5463,-3.5489,-3.5555,-3.5585,-3.5629,-3.5679,-3.569,-3.5736,-3.5769,-3.5821,-3.5842,-3.5913,-3.5927,-3.5942,-3.5946,-3.594,-3.5938,-3.5959,-3.5954,-3.5956,-3.5955,-3.5954,-3.5954,0,-3.5306,-3.5339,-3.5416,-3.5475,-3.5491,-3.5538,-3.5588,-3.5631,-3.5659,-3.5722,-3.5738,-3.5781,-3.5843,-3.5874,-3.5951,-3.5965,-3.6045,-3.6047,-3.6028,-3.6029,-3.6069,-3.6065,-3.6194,-3.6213,-3.6117,-3.6118,-3.6119,0,-3.5354,-3.54,-3.5464,-3.5499,-3.5529,-3.5585,-3.5622,-3.5651,-3.5689,-3.5752,-3.5788,-3.5851,-3.5902,-3.6001,-3.6039,-3.6099,-3.6101,-3.6143,-3.611,-3.6103,-3.6102,-3.6098,-3.6103,-3.6148,-3.6149,-3.6149,-3.615,0,-3.5436,-3.5451,-3.5503,-3.5563,-3.5608,-3.5656,-3.5703,-3.5731,-3.5768,-3.5811,-3.5875,-3.5915,-3.5995,-3.6058,-3.6121,-3.6152,-3.6158,-3.6161,-3.6174,-3.6166,-3.6153,-3.6161,-3.6042,-3.6157,-3.6156,-3.6156,-3.6155,-3.6155,-3.549,-3.5532,-3.5584,-3.5644,-3.5683,-3.5728,-3.5772,-3.5806,-3.586,-3.5927,-3.5942,-3.601,-3.6062,-3.6148,-3.6181,-3.6236,-3.6227,-3.6245,-3.625,-3.6253,-3.6255,-3.6146,-3.6247,-3.6247,-3.6247,-3.6247,-3.6247,0,-3.5571,-3.5607,-3.5661,-3.5728,-3.5776,-3.5779,-3.5833,-3.5872,-3.5932,-3.5981,-3.6032,-3.6107,-3.6168,-3.6213,-3.6276,-3.6311,-3.6316,-3.6327,-3.6323,-3.6331,-3.6259,-3.6242,-3.6322,-3.6322,-3.6322,-3.6322,-3.6322,-3.6322,-3.5619,-3.5691,-3.5713,-3.5805,-3.584,-3.5907,-3.5937,-3.598,-3.6019,-3.6102,-3.6153,-3.6183,-3.623,-3.6298,-3.6355,-3.6367,-3.6389,-3.64,-3.6412,-3.6344,-3.6336,-3.6328,-3.6311,-3.6405,-3.6405,-3.6479,-3.6479,-3.648]},{"header":{"parameterUnit":"m.s-1","parameterCategory":1,"la1":30.2991,"la2":30.254,"lo1":-89.0895,"lo2":-89.0444,"dy":0.0017,"dx":0.0017,"nx":28,"ny":28,"refTime":"2026-03-03T03:00:00:Z","depth":0,"parameterNumber":3,"parameterNumberName":"V-component_of_WINDS"},"data":[0,0,0,0,0,0,0,0,0,0,0,0,0,0,0,0,0,0,0,0,0,0,0,0,0,0,0,0,0,0,0,0,0,0,0,0,0,0,0,0,0,0,0,0,0,0,0,0,0,0,0,0,0,0,0,0,0,0,1.5966,1.5967,0,1.5997,1.5997,1.5998,1.6029,1.6029,1.603,1.603,1.6056,1.6057,1.6057,0,0,0,0,0,0,0,0,0,0,0,0,0,1.5933,1.5933,1.5966,1.5967,1.5967,1.5997,1.5997,1.5998,1.6029,1.6029,1.603,1.603,1.6056,1.6057,1.6057,0,0,0,0,0,0,0,0,0,0,0,0,0,1.5953,1.5933,1.5966,1.5986,1.5989,1.5997,1.5997,1.5998,1.6029,1.6029,1.603,1.6031,1.6056,1.6057,1.6057,1.6046,0,0,1.6058,1.6058,0,0,0,0,0,0,0,0,1.5952,1.5955,1.5983,1.5985,1.5987,1.601,1.5995,1.6014,1.6029,1.6013,1.603,1.6031,1.604,1.6042,1.6046,1.6047,1.6049,1.6058,1.6059,1.6059,1.6059,0,0,0,0,0,0,0,1.5951,1.5954,1.5978,1.5983,1.5986,1.5993,1.5997,1.5999,1.6022,1.6015,1.6017,1.6021,1.6041,1.6045,1.6047,1.6049,1.6058,1.6059,1.6059,1.6059,1.6047,1.6046,0,0,0,0,0,0,1.5947,1.5952,1.5977,1.5979,1.5971,1.5993,1.5997,1.6002,1.6022,1.6026,1.602,1.6022,1.6044,1.6046,1.6048,1.6039,1.6059,1.6059,1.6059,1.6047,1.6046,1.6046,0,0,0,0,0,0,1.5946,1.5949,1.5976,1.5966,1.597,1.5993,1.5998,1.6002,1.6006,1.6027,1.6031,1.602,1.6045,1.6047,1.6048,1.604,1.6059,1.606,1.6048,1.6047,1.6046,1.6019,0,0,0,0,0,0,1.5945,1.5948,1.5945,1.5966,1.5971,1.5976,1.5997,1.6002,1.6008,1.601,1.6028,1.6031,1.6046,1.6047,1.6048,1.6041,1.606,1.6049,1.6047,1.6046,1.602,1.6017,1.6014,0,0,0,0,0,1.5944,1.5934,1.5944,1.5947,1.5967,1.5975,1.5978,1.5996,1.6007,1.6003,1.6017,1.603,1.6041,1.6047,1.6048,1.6041,1.6049,1.6048,1.6046,1.6022,1.6018,1.6014,0,0,0,0,0,0,1.5908,1.5937,1.5949,1.5946,1.5958,1.5981,1.5976,1.5991,1.5999,1.6001,1.6022,1.6026,1.6024,1.6033,1.6038,1.6033,1.6047,1.6046,1.6028,1.6024,1.6021,1.6019,1.606,0,0,0,0,0,1.5901,1.5906,1.593,1.5926,1.5932,1.5953,1.5957,1.5971,1.5984,1.5988,1.6002,1.6013,1.6019,1.6022,1.6028,1.6022,1.6027,1.6018,1.6015,1.6013,1.6011,1.6011,1.6008,1.6041,1.6041,1.6041,0,0,1.5884,1.59,1.5902,1.5919,1.593,1.5935,1.5957,1.596,1.5964,1.5988,1.5991,1.6001,1.6014,1.6012,1.6012,1.6019,1.6004,1.6011,1.6009,1.6009,1.6009,1.6006,1.6003,1.6041,1.6041,1.6041,0,0,1.5856,1.5869,1.5868,1.5879,1.5897,1.5912,1.5912,1.5933,1.5942,1.5945,1.5964,1.5968,1.5977,1.5987,1.5993,1.5974,1.5987,1.5975,1.5958,1.5958,1.5956,1.5953,1.5948,1.5945,1.5974,1.5974,1.5974,0,1.5832,1.5842,1.5864,1.5868,1.5876,1.5901,1.59,1.591,1.5928,1.5932,1.5941,1.5956,1.5966,1.5968,1.5964,1.5967,1.5968,1.5973,1.5954,1.5952,1.5951,1.5945,1.5943,1.5972,1.5972,1.5973,1.5973,0,1.5813,1.5819,1.5816,1.5836,1.5843,1.5844,1.5867,1.5872,1.5886,1.59,1.5904,1.5918,1.5929,1.5931,1.5942,1.5935,1.5939,1.5951,1.5965,1.5946,1.5941,1.5939,1.597,1.5971,1.5971,1.5972,0,0,1.5761,1.5797,1.5795,1.5806,1.5829,1.5834,1.5837,1.585,1.5855,1.5867,1.587,1.5879,1.5892,1.5898,1.5912,1.5912,1.5898,1.5924,1.5925,1.592,1.5892,1.5884,1.5881,1.5907,1.5907,1.5907,1.5891,0,1.5738,1.5747,1.5769,1.577,1.5777,1.5803,1.5806,1.582,1.5834,1.5842,1.5857,1.5864,1.5878,1.5883,1.5884,1.5899,1.5893,1.5901,1.591,1.591,1.5907,1.5878,1.5868,1.5853,1.589,1.5889,1.5889,0,1.5712,1.5726,1.5729,1.5755,1.5758,1.576,1.5776,1.5783,1.58,1.5811,1.5821,1.5837,1.5842,1.5856,1.5863,1.5869,1.5874,1.5882,1.5882,1.5884,1.5898,1.5879,1.5848,1.5846,1.5886,1.5886,1.5887,0,1.5676,1.5695,1.57,1.5708,1.5738,1.5739,1.5752,1.577,1.5778,1.5791,1.5796,1.5809,1.5816,1.5825,1.5845,1.5853,1.5851,1.5866,1.586,1.5859,1.5857,1.5857,1.5827,1.586,1.586,1.586,1.586,0,1.5648,1.5648,1.5685,1.5688,1.569,1.5716,1.5717,1.5732,1.5749,1.5755,1.5777,1.5782,1.5808,1.5817,1.5832,1.5837,1.5839,1.5848,1.5852,1.5846,1.5845,1.585,1.5851,1.586,1.586,1.586,1.586,0,1.5607,1.5631,1.5639,1.5668,1.5676,1.5676,1.5701,1.5705,1.5722,1.5729,1.5733,1.5758,1.577,1.5791,1.5807,1.5818,1.5819,1.5826,1.5814,1.5817,1.581,1.581,1.5782,1.578,1.5813,1.5813,1.5813,0,1.5588,1.559,1.562,1.5627,1.564,1.565,1.5659,1.5685,1.5693,1.5716,1.5717,1.5731,1.5743,1.576,1.5779,1.5792,1.58,1.5789,1.5802,1.5797,1.5801,1.5801,1.5802,1.5786,1.5786,1.5785,1.5785,0,1.5551,1.5564,1.5577,1.5595,1.5606,1.5621,1.5636,1.5641,1.567,1.5679,1.5692,1.5702,1.5721,1.5734,1.5751,1.5763,1.5779,1.5781,1.5781,1.5775,1.5768,1.5773,1.5807,1.5781,1.5782,1.5782,1.5782,1.5782,1.5522,1.5526,1.5549,1.5563,1.5579,1.5594,1.56,1.5619,1.5631,1.565,1.5665,1.5677,1.5697,1.5722,1.5733,1.5743,1.575,1.5749,1.5749,1.5748,1.5747,1.5767,1.5746,1.5746,1.5746,1.5746,1.5746,0,1.5488,1.5505,1.5518,1.5541,1.5553,1.557,1.5589,1.5597,1.5609,1.5627,1.564,1.5656,1.567,1.5692,1.5708,1.5712,1.572,1.5715,1.5715,1.5718,1.5738,1.5738,1.5708,1.5708,1.5708,1.5708,1.5708,1.5708,1.5471,1.548,1.5496,1.5513,1.553,1.5544,1.5554,1.5568,1.5583,1.5601,1.5614,1.5629,1.5649,1.5667,1.5681,1.5687,1.5692,1.5685,1.5694,1.5712,1.5716,1.5719,1.5719,1.5686,1.5686,1.5673,1.5672,1.5672]}]]